Theta_e
344 347 346 347 347 346 345 345 344 341 339 338 338 334 331 332 335 339 339 337 338 336 337 337 340 341 341 340 340 341 336 337 338 339 340 340 341 338 338 337 334 334 335
344 346 345 346 346 346 345 345 346 345 341 346 340 333 328 332 335 338 338 338 339 337 338 340 342 341 341 338 339 339 326 329 338 338 337 340 338 339 339 336 334 335 335
344 343 343 345 345 344 344 345 344 344 344 345 345 336 332 338 341 340 338 339 341 342 341 340 341 341 338 331 334 334 329 323 333 334 331 332 334 340 339 338 336 334 334
344 344 343 346 346 344 344 345 345 343 343 344 344 340 334 338 341 341 340 340 341 342 342 340 338 337 336 330 334 338 338 337 328 330 335 339 339 339 339 337 334 334 333
343 346 346 347 346 344 343 344 344 343 343 343 344 342 336 336 341 341 340 340 341 341 341 339 333 331 331 330 337 338 338 337 336 336 338 338 337 337 337 334 333 332 328
337 343 347 347 345 345 343 343 343 343 342 342 343 343 341 334 335 343 340 337 337 340 339 334 326 327 326 330 338 335 335 336 337 337 334 333 331 331 329 323 326 331 332
335 335 343 346 345 344 341 342 341 342 342 342 343 342 342 340 335 334 342 340 337 339 339 336 329 324 323 329 336 333 332 332 336 337 333 331 327 331 332 328 326 328 329
322 327 334 344 344 344 344 341 341 340 341 342 342 342 342 341 341 334 336 340 338 338 339 338 334 321 324 325 335 332 331 330 331 332 332 330 325 330 333 326 325 326 326
311 312 316 326 341 344 343 343 341 340 340 341 342 341 342 341 341 339 330 339 340 338 337 336 332 328 322 324 328 331 331 328 329 330 329 328 323 331 333 325 325 325 325
309 309 309 311 317 332 340 343 343 340 339 339 340 340 341 341 340 339 336 331 340 339 338 333 331 326 320 322 323 326 328 327 327 329 329 329 328 333 333 326 326 327 325
308 308 308 308 309 311 320 334 342 342 341 340 340 339 341 341 341 340 337 330 337 339 339 337 332 327 320 320 320 320 320 324 326 327 329 329 327 333 334 327 326 326 325
308 309 310 309 309 309 309 312 321 335 341 341 341 341 340 340 340 340 337 335 338 339 339 339 336 331 324 322 324 324 323 318 323 326 328 328 329 335 335 329 325 326 326
306 307 309 309 310 310 310 309 309 312 322 339 340 341 341 340 340 340 339 337 336 338 340 339 338 335 328 323 325 325 324 320 318 327 328 327 329 333 336 334 327 326 326
311 312 312 311 310 310 310 311 311 310 310 314 335 341 341 340 340 340 339 338 337 336 339 339 339 338 334 325 325 325 324 323 319 325 327 327 328 329 335 335 333 327 327
310 311 312 313 313 312 312 312 312 311 311 310 310 323 338 341 340 340 339 339 337 337 337 338 339 339 337 331 325 325 325 324 323 321 324 327 327 328 330 333 335 334 333
308 308 309 310 311 312 313 313 313 312 312 311 311 310 314 329 338 340 340 339 338 336 338 337 337 338 338 336 328 324 325 324 325 323 323 328 329 328 328 328 332 335 335
306 306 307 307 307 308 309 311 313 314 313 313 312 311 311 311 323 337 339 339 339 338 337 339 337 337 338 337 334 327 323 323 325 329 327 325 329 328 328 328 328 327 329
306 306 306 307 307 307 308 308 309 311 313 314 314 313 312 311 311 319 337 337 338 338 338 338 338 337 337 337 337 333 327 324 322 325 329 328 328 328 328 327 327 326 326
306 306 305 305 306 306 307 308 309 309 309 313 314 314 313 312 311 311 319 330 335 337 338 337 336 336 335 334 335 333 331 329 328 322 327 329 329 328 328 327 327 326 326
306 305 305 305 305 305 306 307 308 308 309 309 313 314 313 312 311 310 313 321 324 333 337 337 336 335 335 334 332 332 331 332 331 327 323 329 329 328 327 327 326 325 326
305 305 304 304 306 306 305 306 307 307 308 310 313 313 313 313 312 311 311 321 327 330 333 336 336 335 334 333 331 329 330 329 329 329 328 326 328 329 328 326 325 324 324
305 304 304 305 306 306 306 306 307 307 307 309 313 313 312 312 312 311 311 316 321 327 328 333 335 335 334 334 332 331 332 329 327 327 327 326 328 328 327 326 326 325 324
304 303 304 305 307 307 308 307 309 307 310 312 314 313 313 312 312 312 314 315 317 324 328 329 331 334 334 334 334 332 333 334 329 329 327 327 326 327 327 327 326 325 324
303 303 303 305 307 311 311 311 310 308 310 315 313 313 313 313 313 313 313 321 322 321 321 325 326 330 333 333 333 333 333 330 331 329 327 329 328 328 328 328 329 328 328
303 303 304 305 308 309 313 314 312 312 314 313 313 312 312 313 313 313 317 322 322 321 320 321 323 326 327 329 331 332 331 328 328 327 330 325 326 329 329 329 329 327 327
302 302 303 304 305 307 307 308 310 310 312 311 311 311 312 313 314 316 318 319 319 318 318 318 320 324 325 327 328 331 331 332 332 329 330 328 327 326 326 326 327 327 327
Wind_Speed
4 3 3 7 7 8 9 8 8 8 8 8 9 8 8 8 9 8 8 9 10 10 11 11 9 8 8 8 10 13 12 14 12 13 12 12 14 13 13 13 12 13 12
8 2 4 7 7 9 10 9 8 7 7 8 8 8 8 9 9 9 9 9 9 10 10 10 10 11 10 10 11 12 11 12 13 12 12 12 10 12 12 11 11 11 11
8 2 6 8 9 10 9 10 9 8 7 7 8 7 8 8 8 8 9 9 10 10 10 9 9 10 10 10 12 12 14 13 12 10 9 10 10 12 12 9 8 10 10
9 1 4 8 9 10 10 11 11 9 8 7 6 6 7 7 7 7 8 7 8 7 12 9 7 8 8 9 12 12 12 11 12 11 12 12 11 10 8 6 8 9 9
4 4 2 6 8 9 9 10 10 10 9 8 9 6 6 8 7 7 7 8 8 6 11 7 6 8 7 11 13 12 11 11 12 13 10 9 8 7 7 7 7 8 8
9 10 2 3 6 8 10 10 11 11 11 10 10 9 5 6 9 9 8 9 9 10 9 7 6 8 8 13 14 11 9 9 11 10 8 7 5 6 6 6 6 7 7
9 8 8 1 4 7 9 10 10 11 12 12 12 11 10 8 7 10 10 10 11 11 11 8 6 8 9 14 14 11 8 8 10 11 7 5 4 7 7 6 6 6 6
9 8 9 6 2 5 8 10 10 11 12 12 13 13 13 11 9 10 12 13 12 12 13 10 8 9 11 14 15 11 8 8 10 11 9 6 6 8 8 7 6 6 6
8 8 9 9 5 5 7 9 10 11 12 13 14 14 14 13 13 11 13 14 15 14 13 13 11 11 12 14 16 14 11 9 11 11 10 8 8 9 9 8 7 6 6
10 11 9 8 7 7 6 9 9 11 13 14 14 16 16 15 15 14 14 17 16 17 16 14 14 14 14 15 16 16 14 12 11 13 11 9 9 10 10 9 8 8 7
12 12 11 11 10 10 8 7 10 14 15 16 17 17 17 18 18 16 17 17 18 18 20 18 16 15 16 16 16 16 17 17 15 14 15 12 11 12 12 11 11 10 9
12 12 14 14 14 14 13 12 11 12 16 19 20 20 20 21 21 19 19 19 19 20 22 21 19 17 18 19 19 18 19 19 20 17 17 15 15 14 14 14 13 12 12
13 15 15 15 15 15 16 16 16 16 16 16 21 22 23 23 23 23 22 22 22 22 23 24 23 22 22 22 21 20 20 20 22 20 18 17 18 17 16 16 15 15 14
15 14 15 15 16 16 16 18 19 19 18 19 17 21 23 25 26 27 26 25 25 25 27 27 28 27 25 24 24 23 22 22 23 24 22 19 21 20 19 18 18 18 17
19 18 18 17 16 15 17 18 20 21 21 20 21 21 21 25 29 30 31 30 29 29 30 31 31 31 29 27 27 27 26 25 25 26 26 23 23 24 22 21 19 19 18
23 24 25 24 22 22 22 21 22 23 24 25 23 23 23 23 26 31 34 35 34 35 34 34 35 35 34 32 31 31 30 28 27 28 29 27 24 26 26 24 22 21 20
24 26 28 29 29 29 29 29 28 27 26 27 27 27 25 26 25 27 30 34 37 38 38 37 36 36 36 36 35 34 34 33 32 30 30 31 28 27 29 28 26 24 23
25 27 29 29 29 30 30 31 32 32 29 28 28 28 29 27 28 27 29 32 36 36 38 38 39 37 37 37 39 40 38 37 37 37 34 32 32 30 30 31 30 27 26
25 27 30 30 29 29 29 30 31 33 32 30 30 29 30 30 28 28 29 29 31 30 33 34 34 38 32 34 38 37 39 39 39 39 39 37 35 34 33 31 31 31 30
24 25 28 28 29 28 28 28 29 30 29 28 27 28 29 30 29 28 29 28 28 30 29 30 30 34 33 34 29 30 33 38 39 39 41 40 39 36 35 34 33 32 33
24 25 27 28 29 28 26 23 22 21 25 24 23 21 24 27 28 28 27 26 25 25 29 27 30 29 26 28 20 21 28 33 35 39 40 42 42 40 38 37 35 33 33
24 25 27 26 26 28 26 24 23 24 24 25 24 20 21 23 25 26 26 26 25 25 23 27 28 26 27 25 21 17 7 17 33 37 36 38 42 40 38 37 36 36 36
22 26 24 25 26 25 23 22 22 20 19 20 17 18 19 19 19 21 23 25 25 23 22 24 26 26 25 25 31 17 5 10 6 20 34 38 35 38 38 40 35 37 37
22 23 22 23 26 22 18 19 17 18 19 21 20 19 18 17 19 19 21 20 21 22 23 24 25 29 26 25 19 33 34 8 4 2 8 25 32 37 40 34 37 40 37
20 21 22 22 22 22 17 15 14 16 17 19 19 18 17 16 15 16 17 18 19 20 22 24 25 28 27 27 24 23 28 29 22 5 7 5 21 33 33 35 31 23 20
19 18 18 20 19 21 20 16 14 16 17 18 19 17 16 14 14 13 13 15 16 18 21 24 24 26 25 27 31 31 27 10 11 9 6 5 8 19 26 25 25 23 23
Wind_Direction
350 194 197 204 191 180 166 163 148 144 138 134 133 134 137 136 133 133 135 136 135 133 128 127 133 128 123 119 121 114 116 125 132 120 118 121 109 104 105 102 97 90 88
337 199 209 217 207 190 176 170 164 158 148 139 141 138 140 138 137 138 139 138 140 140 134 134 128 131 124 123 121 120 114 123 131 125 114 121 105 113 113 105 94 92 92
354 283 236 226 210 200 190 185 175 170 162 159 152 146 146 142 140 141 147 149 154 164 147 142 135 131 133 131 130 123 115 121 135 130 123 123 119 126 116 106 91 91 91
5 50 210 221 215 205 199 192 186 183 172 176 179 166 160 155 153 150 152 158 164 173 156 152 159 158 146 142 136 132 127 128 133 134 124 118 115 117 116 111 101 99 98
25 28 255 210 211 209 205 204 198 196 191 192 189 177 189 175 176 172 170 175 183 194 171 179 186 182 169 159 147 141 139 140 140 141 136 136 139 127 122 116 114 112 109
32 33 29 183 220 219 212 210 211 208 206 204 203 201 211 208 189 198 192 189 193 191 192 199 195 187 177 169 157 153 160 171 170 159 155 152 162 145 144 139 128 124 120
28 27 23 265 230 243 229 221 218 216 218 218 212 210 212 224 216 210 208 207 206 209 212 211 208 193 183 176 171 169 170 165 174 188 184 169 172 162 156 152 146 142 135
30 19 11 3 262 235 249 240 237 228 226 221 215 217 221 228 227 227 216 216 217 216 216 220 220 205 192 187 186 187 187 181 181 187 196 199 192 178 172 172 166 160 153
14 9 7 9 4 287 260 251 243 243 239 231 224 225 226 233 231 237 229 223 224 220 218 222 224 217 205 200 200 201 207 203 206 205 205 203 201 190 186 190 187 182 176
357 352 346 346 343 334 310 272 248 252 245 244 240 235 233 237 237 243 239 228 228 227 227 229 228 223 215 211 211 211 216 220 218 216 217 216 218 202 202 206 202 198 198
344 342 335 326 319 313 310 295 263 251 248 250 245 241 239 238 240 244 244 235 229 233 231 232 234 233 225 222 220 219 221 224 225 228 228 224 222 213 213 219 215 214 212
346 353 349 340 328 313 304 298 290 283 261 249 249 247 242 241 244 245 248 242 238 237 233 233 235 237 233 231 232 227 226 225 226 232 229 231 226 222 223 228 229 225 223
342 335 335 329 327 322 316 303 289 286 282 272 252 251 249 246 244 245 246 243 240 237 235 234 235 237 236 234 233 230 229 229 227 229 230 232 229 229 229 231 235 233 232
8 356 347 337 328 316 311 312 304 291 282 277 272 257 253 249 247 246 246 244 242 239 236 235 236 237 238 238 237 236 233 233 231 229 232 235 237 236 233 235 237 239 238
353 344 339 335 331 320 308 303 302 296 287 282 275 269 263 257 255 252 248 247 245 242 238 237 237 239 240 239 239 239 238 236 235 233 235 236 240 239 238 239 240 242 241
340 335 329 322 317 311 307 303 296 290 290 286 281 275 268 264 262 259 257 253 250 245 242 239 240 240 241 240 241 240 241 241 239 238 237 240 242 239 240 241 244 242 244
337 331 326 322 316 309 304 299 294 291 287 285 283 280 277 268 267 261 254 254 255 252 246 241 241 242 244 244 244 243 243 242 241 240 239 240 242 240 243 243 247 251 248
341 334 326 322 316 311 307 302 295 287 285 283 279 279 276 276 270 267 260 255 257 252 250 242 239 233 237 240 244 245 243 243 243 242 242 239 240 242 244 243 246 250 253
346 338 331 325 321 318 313 308 303 296 286 282 283 278 274 272 274 271 269 269 261 254 245 238 235 234 229 234 239 242 245 246 246 243 241 241 242 243 244 246 247 251 252
341 334 329 322 317 317 313 311 309 307 296 287 288 284 280 276 275 274 269 269 272 263 245 237 235 236 231 234 235 237 241 244 246 245 243 242 241 241 244 248 250 251 251
335 333 329 326 327 324 315 307 303 303 300 295 293 287 287 278 272 273 272 266 269 271 259 245 239 233 235 233 232 243 242 245 243 241 245 242 245 243 246 247 250 251 253
335 334 336 335 330 321 310 303 297 297 295 296 299 286 290 282 271 274 272 269 265 272 272 258 238 240 242 236 233 242 248 245 240 239 237 239 242 246 244 246 251 251 252
341 340 338 332 331 323 317 310 309 306 297 303 301 292 289 287 276 278 280 274 268 269 270 266 261 248 245 238 228 226 240 244 209 224 228 232 238 241 241 248 251 254 252
342 349 346 345 341 336 330 318 300 289 284 302 307 302 296 287 282 287 291 285 271 274 278 279 277 263 259 251 251 231 237 270 200 240 237 227 230 234 234 244 251 259 263
350 353 0 356 356 5 2 346 311 287 306 320 316 310 301 297 294 297 292 288 279 280 284 286 281 273 265 266 257 251 241 237 231 206 219 218 221 230 230 239 245 244 257
357 359 3 4 1 12 9 15 18 9 360 349 344 338 329 322 317 311 296 289 291 292 290 286 284 274 269 263 260 256 248 233 221 223 238 221 209 213 210 218 234 251 261